SVA1651 VAAH-OEJN

Flight info

Callsign SVA1651
Flight time N/A
Altitude 37000
Route SASRO1B SASRO G208 KE A325 KC A454 MELOM A325 BIVIN A791 KUSEN M677 TUKSI P699 IVOXI N571 TUDIS P699 EGTAG Q576 RORON M430 KSA G782 RGB M309 VEMEM
Aircraft A339/H-SADE1E2E3GHIJ3J5M1P2RWXY/LB2D1

Departure

Time 2026-04-21 18:25
Airport Sardar Vallabh Patel International Airport (VAAH)

Arrival

Time N/A
Airport King Abdulaziz International Airport (OEJN)
Time Latitude Longitude Altitude Speed Heading
2026-04-21 18:18 23.07379 72.62559 211 ft 0 kts 221°
2026-04-21 18:20 23.07374 72.62553 211 ft 2 kts 221°
2026-04-21 18:20 23.07351 72.62535 208 ft 4 kts 215°
2026-04-21 18:20 23.07323 72.62516 211 ft 6 kts 212°
2026-04-21 18:21 23.07284 72.62498 209 ft 5 kts 187°
2026-04-21 18:21 23.07244 72.62515 206 ft 7 kts 152°
2026-04-21 18:21 23.07220 72.62537 203 ft 7 kts 138°
2026-04-21 18:21 23.07165 72.62576 202 ft 5 kts 182°
2026-04-21 18:22 23.07129 72.62555 209 ft 7 kts 210°
2026-04-21 18:22 23.07091 72.62520 196 ft 8 kts 224°
2026-04-21 18:22 23.07065 72.62489 210 ft 9 kts 228°
2026-04-21 18:22 23.07022 72.62439 210 ft 10 kts 224°
2026-04-21 18:23 23.06972 72.62387 207 ft 10 kts 224°
2026-04-21 18:23 23.06916 72.62330 210 ft 12 kts 223°
2026-04-21 18:23 23.06852 72.62276 205 ft 11 kts 198°
2026-04-21 18:23 23.06791 72.62293 205 ft 0 kts 146°
2026-04-21 18:24 23.06785 72.62298 205 ft 7 kts 144°
2026-04-21 18:24 23.06738 72.62356 205 ft 10 kts 113°
2026-04-21 18:24 23.06766 72.62418 207 ft 9 kts 45°
2026-04-21 18:25 23.06947 72.62622 211 ft 79 kts 45°
2026-04-21 18:25 23.07530 72.63251 214 ft 153 kts 44°
2026-04-21 18:25 23.08412 72.64193 413 ft 192 kts 44°
2026-04-21 18:25 23.09379 72.65176 1235 ft 189 kts 41°
2026-04-21 18:26 23.10301 72.66215 2059 ft 195 kts 44°
2026-04-21 18:26 23.11466 72.67059 2534 ft 209 kts 13°
2026-04-21 18:26 23.12927 72.67168 2903 ft 216 kts 344°
2026-04-21 18:26 23.14303 72.66446 3130 ft 227 kts 315°
2026-04-21 18:27 23.15340 72.65113 3294 ft 244 kts 302°
2026-04-21 18:27 23.16346 72.63554 3575 ft 257 kts 303°
2026-04-21 18:27 23.17468 72.62023 4079 ft 261 kts 308°
2026-04-21 18:27 23.18703 72.60567 4636 ft 263 kts 310°
2026-04-21 18:28 23.19994 72.59124 5135 ft 267 kts 311°
2026-04-21 18:28 23.21326 72.57694 5669 ft 272 kts 312°
2026-04-21 18:28 23.22699 72.56258 6187 ft 276 kts 313°
2026-04-21 18:28 23.24041 72.54766 6730 ft 275 kts 306°
2026-04-21 18:29 23.25125 72.53062 7303 ft 273 kts 296°
2026-04-21 18:29 23.26063 72.51275 7835 ft 276 kts 296°
2026-04-21 18:29 23.27029 72.49460 8404 ft 278 kts 296°
2026-04-21 18:29 23.28008 72.47641 8980 ft 280 kts 296°
2026-04-21 18:30 23.29003 72.45801 9571 ft 283 kts 296°
2026-04-21 18:30 23.30009 72.43941 10046 ft 289 kts 296°
2026-04-21 18:30 23.31059 72.41993 10187 ft 307 kts 297°
2026-04-21 18:30 23.32170 72.39931 10329 ft 324 kts 297°
2026-04-21 18:31 23.33320 72.37800 10550 ft 336 kts 297°
2026-04-21 18:31 23.34516 72.35588 10990 ft 340 kts 298°
2026-04-21 18:31 23.35726 72.33352 11479 ft 343 kts 298°
2026-04-21 18:31 23.36943 72.31097 11958 ft 347 kts 298°
2026-04-21 18:32 23.38171 72.28820 12419 ft 350 kts 299°
2026-04-21 18:32 23.39412 72.26519 12896 ft 353 kts 299°
2026-04-21 18:32 23.40659 72.24203 13378 ft 356 kts 300°
2026-04-21 18:32 23.41918 72.21866 13814 ft 359 kts 300°
2026-04-21 18:33 23.43192 72.19513 14213 ft 362 kts 300°
2026-04-21 18:33 23.44478 72.17140 14652 ft 364 kts 300°
2026-04-21 18:33 23.45769 72.14756 15083 ft 366 kts 300°
2026-04-21 18:33 23.47050 72.12388 15508 ft 369 kts 300°
2026-04-21 18:34 23.48357 72.09970 15925 ft 372 kts 300°
2026-04-21 18:34 23.49678 72.07524 16346 ft 374 kts 300°
2026-04-21 18:34 23.51001 72.05070 16757 ft 376 kts 300°
2026-04-21 18:34 23.52331 72.02604 17154 ft 379 kts 300°
2026-04-21 18:35 23.53220 72.00956 17425 ft 381 kts 300°
2026-04-21 18:35 23.54571 71.98449 17815 ft 384 kts 300°
2026-04-21 18:35 23.56384 71.95082 18347 ft 387 kts 300°
2026-04-21 18:35 23.57735 71.92572 18705 ft 389 kts 300°
2026-04-21 18:36 23.59108 71.90022 19060 ft 392 kts 300°
2026-04-21 18:36 23.60497 71.87439 19425 ft 394 kts 300°
2026-04-21 18:36 23.61895 71.84842 19789 ft 397 kts 300°
2026-04-21 18:36 23.62823 71.83116 20036 ft 399 kts 300°
2026-04-21 18:37 23.64705 71.79615 20545 ft 402 kts 301°
2026-04-21 18:37 23.66105 71.77008 20911 ft 405 kts 301°
2026-04-21 18:37 23.67535 71.74346 21302 ft 407 kts 301°
2026-04-21 18:37 23.68969 71.71674 21701 ft 409 kts 301°
2026-04-21 18:38 23.70412 71.68982 22069 ft 412 kts 301°
2026-04-21 18:38 23.71864 71.66273 22473 ft 414 kts 301°
2026-04-21 18:38 23.73326 71.63544 22847 ft 418 kts 300°
2026-04-21 18:38 23.74801 71.60790 23229 ft 420 kts 300°
2026-04-21 18:39 23.76280 71.58024 23617 ft 422 kts 301°
2026-04-21 18:39 23.77761 71.55253 24040 ft 422 kts 301°
2026-04-21 18:39 23.79246 71.52474 24436 ft 423 kts 301°
2026-04-21 18:39 23.80718 71.49720 24828 ft 424 kts 301°
2026-04-21 18:40 23.82207 71.46930 25223 ft 425 kts 301°
2026-04-21 18:40 23.83702 71.44127 25599 ft 427 kts 301°
2026-04-21 18:40 23.84696 71.42262 25847 ft 428 kts 301°
2026-04-21 18:40 23.86693 71.38514 26340 ft 431 kts 301°
2026-04-21 18:41 23.88205 71.35675 26711 ft 433 kts 301°
2026-04-21 18:41 23.89723 71.32823 27087 ft 434 kts 301°
2026-04-21 18:41 23.91245 71.29961 27482 ft 436 kts 301°
2026-04-21 18:41 23.92774 71.27085 27858 ft 437 kts 301°
2026-04-21 18:42 23.94309 71.24195 28235 ft 439 kts 301°
2026-04-21 18:42 23.95829 71.21333 28611 ft 440 kts 301°
2026-04-21 18:42 23.97371 71.18426 28972 ft 442 kts 301°
2026-04-21 18:42 23.98917 71.15511 29328 ft 444 kts 301°
2026-04-21 18:43 24.00467 71.12586 29685 ft 445 kts 301°
2026-04-21 18:43 24.02026 71.09644 30014 ft 447 kts 301°
2026-04-21 18:43 24.03589 71.06692 30321 ft 449 kts 301°
2026-04-21 18:43 24.05174 71.03744 30598 ft 451 kts 303°
2026-04-21 18:44 24.07046 71.00982 30889 ft 452 kts 311°
2026-04-21 18:44 24.09229 70.98540 31188 ft 454 kts 318°
2026-04-21 18:44 24.11734 70.96394 31455 ft 457 kts 325°
2026-04-21 18:44 24.14364 70.94405 31737 ft 459 kts 324°
2026-04-21 18:45 24.16963 70.92410 31998 ft 461 kts 324°
2026-04-21 18:45 24.19593 70.90377 32254 ft 463 kts 324°
2026-04-21 18:45 24.22232 70.88333 32476 ft 466 kts 324°
2026-04-21 18:45 24.24884 70.86276 32706 ft 467 kts 323°
2026-04-21 18:46 24.27501 70.84146 32885 ft 469 kts 321°
2026-04-21 18:46 24.30064 70.81947 33065 ft 470 kts 320°
2026-04-21 18:46 24.32636 70.79721 33246 ft 471 kts 320°
2026-04-21 18:46 24.35217 70.77498 33421 ft 472 kts 321°
2026-04-21 18:47 24.37804 70.75285 33609 ft 471 kts 321°
2026-04-21 18:47 24.40397 70.73076 33818 ft 471 kts 321°
2026-04-21 18:47 24.42962 70.70895 34008 ft 470 kts 321°
2026-04-21 18:47 24.45546 70.68699 34215 ft 469 kts 321°
2026-04-21 18:48 24.48129 70.66501 34395 ft 469 kts 321°
2026-04-21 18:48 24.50707 70.64306 34575 ft 468 kts 321°
2026-04-21 18:48 24.53284 70.62111 34773 ft 467 kts 321°
2026-04-21 18:48 24.55853 70.59922 34959 ft 466 kts 321°
2026-04-21 18:49 24.58386 70.57762 35149 ft 466 kts 321°
2026-04-21 18:49 24.60952 70.55573 35330 ft 465 kts 321°
2026-04-21 18:49 24.62645 70.54128 35463 ft 464 kts 321°
2026-04-21 18:49 24.66058 70.51213 35677 ft 463 kts 321°
2026-04-21 18:50 24.68606 70.49035 35875 ft 463 kts 321°
2026-04-21 18:50 24.71146 70.46863 36047 ft 462 kts 321°
2026-04-21 18:50 24.73681 70.44695 36215 ft 461 kts 321°
2026-04-21 18:50 24.76219 70.42523 36405 ft 461 kts 321°
2026-04-21 18:51 24.78748 70.40357 36575 ft 460 kts 321°
2026-04-21 18:51 24.81246 70.38216 36730 ft 460 kts 320°
2026-04-21 18:51 24.83768 70.36054 36850 ft 460 kts 320°
2026-04-21 18:52 24.88804 70.31733 36849 ft 457 kts 320°
2026-04-21 18:52 24.93828 70.27417 36850 ft 457 kts 320°
2026-04-21 18:53 24.98815 70.23129 36850 ft 457 kts 320°
2026-04-21 18:53 25.03831 70.18810 36848 ft 456 kts 320°
2026-04-21 18:54 25.08829 70.14504 36845 ft 455 kts 320°
2026-04-21 18:54 25.13822 70.10196 36846 ft 455 kts 320°
2026-04-21 18:55 25.17967 70.06618 36840 ft 455 kts 320°
2026-04-21 18:55 25.23767 70.01604 36841 ft 454 kts 320°
2026-04-21 18:56 25.28757 69.97286 36841 ft 454 kts 320°
2026-04-21 18:56 25.33692 69.93011 36840 ft 454 kts 320°
2026-04-21 18:57 25.38653 69.88709 36834 ft 453 kts 320°
2026-04-21 18:57 25.43570 69.84333 36828 ft 451 kts 314°
2026-04-21 18:58 25.47315 69.78821 36827 ft 447 kts 296°
2026-04-21 18:58 25.49290 69.72327 36823 ft 446 kts 278°
2026-04-21 18:59 25.49332 69.65532 36824 ft 446 kts 261°
2026-04-21 18:59 25.47867 69.58847 36820 ft 447 kts 257°
2026-04-21 19:00 25.46350 69.52164 36822 ft 447 kts 257°
2026-04-21 19:00 25.44845 69.45521 36827 ft 447 kts 257°
2026-04-21 19:01 25.43323 69.38835 36822 ft 448 kts 257°
2026-04-21 19:01 25.41795 69.32143 36831 ft 448 kts 257°
2026-04-21 19:02 25.40274 69.25499 36830 ft 448 kts 256°
2026-04-21 19:02 25.38740 69.18807 36825 ft 448 kts 256°
2026-04-21 19:03 25.37203 69.12113 36828 ft 448 kts 256°
2026-04-21 19:03 25.35660 69.05411 36830 ft 449 kts 256°
2026-04-21 19:04 25.34126 68.98764 36831 ft 449 kts 256°
2026-04-21 19:04 25.32576 68.92061 36832 ft 449 kts 256°
2026-04-21 19:05 25.31025 68.85369 36833 ft 450 kts 256°
2026-04-21 19:05 25.29468 68.78667 36831 ft 450 kts 256°
2026-04-21 19:06 25.27913 68.71991 36832 ft 450 kts 256°
2026-04-21 19:06 25.26345 68.65274 36833 ft 450 kts 256°
2026-04-21 19:07 25.24783 68.58596 36834 ft 451 kts 256°
2026-04-21 19:07 25.23211 68.51891 36835 ft 451 kts 256°
2026-04-21 19:08 25.21630 68.45167 36832 ft 451 kts 256°
2026-04-21 19:08 25.20316 68.39586 36832 ft 451 kts 256°
2026-04-21 19:09 25.18741 68.32910 36833 ft 452 kts 256°
2026-04-21 19:09 25.17150 68.26184 36835 ft 452 kts 256°
2026-04-21 19:10 25.15297 68.18368 36840 ft 452 kts 256°
2026-04-21 19:10 25.13968 68.12775 36838 ft 453 kts 256°
2026-04-21 19:11 25.12367 68.06047 36842 ft 453 kts 256°
2026-04-21 19:11 25.10762 67.99321 36844 ft 453 kts 256°
2026-04-21 19:12 25.09148 67.92571 36845 ft 453 kts 256°
2026-04-21 19:12 25.07545 67.85882 36850 ft 454 kts 256°
2026-04-21 19:13 25.05926 67.79139 36849 ft 454 kts 256°
2026-04-21 19:13 25.04313 67.72437 36853 ft 454 kts 256°
2026-04-21 19:14 25.02690 67.65705 36857 ft 454 kts 256°
2026-04-21 19:14 25.01064 67.58970 36857 ft 454 kts 256°
2026-04-21 19:15 24.99443 67.52232 36856 ft 454 kts 256°
2026-04-21 19:15 24.97819 67.45488 36865 ft 454 kts 256°
2026-04-21 19:16 24.96204 67.38803 36864 ft 454 kts 256°
2026-04-21 19:16 24.94571 67.32060 36862 ft 454 kts 256°
2026-04-21 19:17 24.92278 67.21980 36866 ft 453 kts 262°
2026-04-21 19:17 24.92136 67.15048 36861 ft 453 kts 276°
2026-04-21 19:18 24.93442 67.08254 36858 ft 453 kts 284°
2026-04-21 19:18 24.94991 67.01515 36858 ft 454 kts 283°
2026-04-21 19:19 24.96506 66.94794 36859 ft 454 kts 283°
2026-04-21 19:19 24.98032 66.88019 36857 ft 454 kts 283°
2026-04-21 19:20 24.99543 66.81299 36855 ft 454 kts 283°
2026-04-21 19:20 25.01029 66.74677 36855 ft 455 kts 283°
2026-04-21 19:21 25.02548 66.67892 36856 ft 455 kts 283°
2026-04-21 19:21 25.04064 66.61110 36855 ft 455 kts 283°
2026-04-21 19:22 25.05566 66.54368 36855 ft 455 kts 283°
2026-04-21 19:22 25.07076 66.47574 36857 ft 455 kts 283°
2026-04-21 19:23 25.08571 66.40829 36857 ft 455 kts 283°
2026-04-21 19:23 25.10075 66.34036 36854 ft 455 kts 283°
2026-04-21 19:24 25.11575 66.27239 36857 ft 455 kts 283°
2026-04-21 19:24 25.13065 66.20477 36860 ft 455 kts 283°
2026-04-21 19:25 25.14560 66.13671 36857 ft 455 kts 283°
2026-04-21 19:25 25.16040 66.06923 36859 ft 455 kts 283°
2026-04-21 19:26 25.17528 66.00122 36856 ft 455 kts 283°
2026-04-21 19:26 25.19011 65.93325 36855 ft 455 kts 283°
2026-04-21 19:27 25.20493 65.86521 36853 ft 455 kts 283°
2026-04-21 19:27 25.21973 65.79708 36852 ft 456 kts 283°
2026-04-21 19:28 25.23440 65.72939 36853 ft 456 kts 283°
2026-04-21 19:28 25.24917 65.66109 36853 ft 456 kts 283°
2026-04-21 19:29 25.26389 65.59285 36853 ft 456 kts 283°
2026-04-21 19:29 25.27857 65.52463 36849 ft 457 kts 283°
2026-04-21 19:30 25.29325 65.45628 36851 ft 457 kts 283°
2026-04-21 19:30 25.30792 65.38778 36855 ft 458 kts 283°
2026-04-21 19:31 25.32247 65.31966 36857 ft 458 kts 283°
2026-04-21 19:31 25.33703 65.25129 36857 ft 459 kts 283°
2026-04-21 19:32 25.35165 65.18251 36860 ft 459 kts 283°
2026-04-21 19:32 25.36622 65.11377 36862 ft 459 kts 283°
2026-04-21 19:33 25.38078 65.04498 36862 ft 459 kts 282°
2026-04-21 19:33 25.39521 64.97657 36863 ft 459 kts 282°
2026-04-21 19:34 25.40956 64.90769 36863 ft 459 kts 281°
2026-04-21 19:34 25.41662 64.83767 36863 ft 458 kts 271°
2026-04-21 19:35 25.40889 64.73238 36861 ft 458 kts 263°
2026-04-21 19:36 25.40142 64.66286 36861 ft 458 kts 263°
2026-04-21 19:36 25.39394 64.59302 36861 ft 457 kts 263°
2026-04-21 19:37 25.38637 64.52306 36858 ft 457 kts 263°
2026-04-21 19:37 25.37874 64.45315 36861 ft 457 kts 263°
2026-04-21 19:38 25.37114 64.38371 36863 ft 457 kts 263°
2026-04-21 19:38 25.36476 64.32572 36860 ft 456 kts 263°
2026-04-21 19:39 25.35576 64.24418 36854 ft 456 kts 263°
2026-04-21 19:39 25.34807 64.17486 36857 ft 456 kts 263°
2026-04-21 19:40 25.34030 64.10511 36856 ft 456 kts 263°
2026-04-21 19:40 25.33250 64.03542 36853 ft 456 kts 262°
2026-04-21 19:41 25.32474 63.96626 36853 ft 456 kts 262°
2026-04-21 19:41 25.31689 63.89664 36862 ft 456 kts 262°
2026-04-21 19:42 25.30898 63.82689 36856 ft 456 kts 262°
2026-04-21 19:42 25.30106 63.75732 36849 ft 457 kts 262°
2026-04-21 19:43 25.29314 63.68800 36856 ft 457 kts 262°
2026-04-21 19:43 25.28512 63.61815 36854 ft 457 kts 262°
2026-04-21 19:44 25.27712 63.54877 36855 ft 457 kts 262°
2026-04-21 19:44 25.26904 63.47899 36855 ft 457 kts 262°
2026-04-21 19:45 25.26230 63.42099 36861 ft 458 kts 263°
2026-04-21 19:45 25.25282 63.33979 36858 ft 458 kts 263°
2026-04-21 19:46 25.24463 63.26990 36860 ft 458 kts 263°
2026-04-21 19:46 25.23641 63.20004 36860 ft 458 kts 263°
2026-04-21 19:47 25.22819 63.13052 36861 ft 458 kts 263°
2026-04-21 19:47 25.21992 63.06082 36855 ft 459 kts 263°
2026-04-21 19:48 25.21159 62.99085 36851 ft 459 kts 263°
2026-04-21 19:48 25.20320 62.92074 36856 ft 460 kts 263°
2026-04-21 19:49 25.19477 62.85064 36856 ft 460 kts 263°
2026-04-21 19:49 25.18637 62.78100 36854 ft 460 kts 263°
2026-04-21 19:50 25.17930 62.72260 36855 ft 461 kts 263°
2026-04-21 19:50 25.16935 62.64077 36855 ft 461 kts 263°
2026-04-21 19:51 25.16078 62.57052 36859 ft 461 kts 263°
2026-04-21 19:51 25.15215 62.50018 36857 ft 461 kts 263°
2026-04-21 19:52 25.14355 62.43028 36860 ft 461 kts 263°
2026-04-21 19:52 25.13486 62.36000 36859 ft 462 kts 263°
2026-04-21 19:53 25.12614 62.28966 36861 ft 462 kts 263°
2026-04-21 19:53 25.11744 62.21982 36861 ft 461 kts 263°
2026-04-21 19:54 25.10866 62.14957 36860 ft 461 kts 263°
2026-04-21 19:54 25.09985 62.07935 36861 ft 461 kts 263°
2026-04-21 19:55 25.09105 62.00957 36859 ft 461 kts 263°
2026-04-21 19:55 25.08220 61.93953 36858 ft 461 kts 263°
2026-04-21 19:56 25.07332 61.86951 36853 ft 461 kts 263°
2026-04-21 19:56 25.06563 61.79917 36856 ft 460 kts 268°
2026-04-21 19:57 25.06777 61.72923 36853 ft 459 kts 275°
2026-04-21 19:57 25.07221 61.65891 36854 ft 459 kts 275°
2026-04-21 19:58 25.07642 61.58843 36859 ft 459 kts 274°
2026-04-21 19:58 25.08061 61.51851 36856 ft 459 kts 275°
2026-04-21 19:59 25.08522 61.44820 36858 ft 459 kts 275°
2026-04-21 19:59 25.08984 61.37785 36858 ft 459 kts 275°
2026-04-21 20:00 25.09361 61.31936 36858 ft 459 kts 275°
2026-04-21 20:00 25.09811 61.24894 36858 ft 459 kts 275°
2026-04-21 20:01 25.10256 61.17856 36857 ft 459 kts 274°
2026-04-21 20:01 25.10697 61.10855 36856 ft 460 kts 274°
2026-04-21 20:02 25.11137 61.03795 36853 ft 460 kts 274°
2026-04-21 20:02 25.11570 60.96797 36855 ft 459 kts 274°
2026-04-21 20:03 25.12003 60.89756 36856 ft 459 kts 274°
2026-04-21 20:03 25.12432 60.82713 36861 ft 459 kts 274°
2026-04-21 20:04 25.12856 60.75683 36859 ft 458 kts 274°
2026-04-21 20:04 25.13275 60.68706 36858 ft 458 kts 274°
2026-04-21 20:05 25.13693 60.61700 36859 ft 457 kts 274°
2026-04-21 20:05 25.14097 60.54705 36860 ft 456 kts 274°
2026-04-21 20:06 25.14494 60.47721 36856 ft 455 kts 274°
2026-04-21 20:06 25.14888 60.40742 36853 ft 455 kts 274°
2026-04-21 20:07 25.15278 60.33811 36853 ft 454 kts 274°
2026-04-21 20:07 25.15666 60.26848 36851 ft 454 kts 274°
2026-04-21 20:08 25.16049 60.19906 36850 ft 453 kts 274°
2026-04-21 20:08 25.16428 60.12946 36849 ft 453 kts 274°
2026-04-21 20:09 25.16793 60.06016 36844 ft 452 kts 274°
2026-04-21 20:09 25.17152 59.99122 36848 ft 452 kts 274°
2026-04-21 20:10 25.17510 59.92196 36848 ft 451 kts 274°
2026-04-21 20:10 25.17866 59.85277 36848 ft 450 kts 274°
2026-04-21 20:11 25.18216 59.78404 36847 ft 450 kts 274°
2026-04-21 20:11 25.18563 59.71509 36846 ft 449 kts 273°
2026-04-21 20:12 25.18907 59.64627 36848 ft 448 kts 273°
2026-04-21 20:12 25.19247 59.57758 36845 ft 447 kts 273°
2026-04-21 20:13 25.19582 59.50928 36847 ft 447 kts 273°
2026-04-21 20:13 25.19914 59.44081 36846 ft 446 kts 273°
2026-04-21 20:14 25.20243 59.37229 36839 ft 445 kts 273°
2026-04-21 20:14 25.20558 59.30448 36842 ft 444 kts 273°
2026-04-21 20:15 25.20863 59.23632 36839 ft 444 kts 273°
2026-04-21 20:15 25.21166 59.16823 36839 ft 443 kts 273°
2026-04-21 20:16 25.21465 59.10061 36842 ft 443 kts 273°
2026-04-21 20:16 25.21763 59.03253 36842 ft 442 kts 273°
2026-04-21 20:17 25.22057 58.96473 36839 ft 442 kts 273°
2026-04-21 20:17 25.22346 58.89713 36839 ft 442 kts 273°
2026-04-21 20:18 25.22585 58.84079 36837 ft 442 kts 273°
2026-04-21 20:18 25.22916 58.76173 36841 ft 442 kts 273°
2026-04-21 20:19 25.23198 58.69380 36840 ft 442 kts 273°
2026-04-21 20:19 25.23476 58.62596 36841 ft 441 kts 273°
2026-04-21 20:20 25.23750 58.55817 36843 ft 441 kts 272°
2026-04-21 20:20 25.24020 58.49078 36846 ft 441 kts 273°
2026-04-21 20:21 25.24288 58.42293 36843 ft 441 kts 273°
2026-04-21 20:21 25.24553 58.35522 36844 ft 441 kts 273°
2026-04-21 20:22 25.24814 58.28776 36843 ft 440 kts 273°
2026-04-21 20:22 25.25199 58.18662 36844 ft 440 kts 273°
2026-04-21 20:23 25.25453 58.11912 36844 ft 439 kts 273°
2026-04-21 20:23 25.25702 58.05187 36844 ft 439 kts 273°
2026-04-21 20:24 25.25949 57.98442 36844 ft 439 kts 273°
2026-04-21 20:24 25.26191 57.91741 36841 ft 438 kts 273°
2026-04-21 20:25 25.26431 57.85019 36843 ft 438 kts 273°
2026-04-21 20:25 25.26669 57.78294 36843 ft 437 kts 273°
2026-04-21 20:26 25.26816 57.73838 36841 ft 437 kts 273°
2026-04-21 20:26 25.26917 57.70471 36841 ft 437 kts 272°